Lumberton, NC

7:17 PM EDT on July 29, 2016 (GMT -0400)
Lumberton Municipal

Weather History for KLBT - April, 2012

Change the Weather History Date:

Friday, April 13, 2012

  Actual Average Record
Temperature  
Mean Temperature 53 °F 61 °F  
Max Temperature 72 °F 74 °F 87 °F (2001)
Min Temperature 34 °F 48 °F 34 °F (2012)
Degree Days  
Heating Degree Days 12 6  
Month to date heating degree days 89 86  
Since 1 July heating degree days 2088 2662  
Cooling Degree Days 0 2  
Month to date cooling degree days 10 18  
Year to date cooling degree days 78 31  
Growing Degree Days 3 (Base 50)    
Moisture  
Dew Point 38 °F    
Average Humidity 59    
Maximum Humidity 93    
Minimum Humidity 25    
Precipitation  
Precipitation 0.00 in 0.10 in 0.36 in (2004)
Month to date precipitation 1.26 1.36  
Year to date precipitation 10.00 10.56  
Sea Level Pressure  
Sea Level Pressure 30.22 in    
Wind  
Wind Speed 2 mph (SW)    
Max Wind Speed 8 mph    
Max Gust Speed 16 mph    
Visibility 8 miles    
Events      
T = Trace of Precipitation, MM = Missing Value Source: NWS Daily Summary

Daily Weather History Graph

Daily Weather History Graph

Search for Another Location

Airport or City:

Trip Planner

Search our weather history database for the weather conditions in past years. The results will help you decide how hot, cold, wet, or windy it might be!

Date:

Astronomy

Apr. 13, 2012 Rise Set
Actual Time 6:46 AM EDT 7:47 PM EDT
Civil Twilight 6:20 AM EDT 8:13 PM EDT
Nautical Twilight 5:50 AM EDT 8:43 PM EDT
Astronomical Twilight 5:18 AM EDT 9:15 PM EDT
Moon 2:11 AM EDT (4/13) 12:52 PM EDT (4/13)
Length of Visible Light 13h 52m
Length of Day
13h 00m
Waning Gibbous, 48% of the Moon is Illuminated
Apr 13
Waning Gibbous
Apr 21
New
Apr 29
First Quarter
May 5
Full
May 12
Last Quarter

Hourly Weather History & Observations

Time (EDT) Temp. Dew Point Humidity Pressure Visibility Wind Dir Wind Speed Gust Speed Precip Events Conditions
12:54 AM 37.9 °F 36.0 °F 93% 30.19 in 8.0 mi Calm Calm - N/A   Clear
1:54 AM 37.9 °F 36.0 °F 93% 30.18 in 7.0 mi Calm Calm - N/A   Clear
2:54 AM 37.0 °F 35.1 °F 93% 30.18 in 6.0 mi Calm Calm - N/A   Clear
3:54 AM 37.0 °F 35.1 °F 93% 30.17 in 5.0 mi Calm Calm - N/A   Clear
4:54 AM 35.1 °F 34.0 °F 96% 30.17 in 5.0 mi Calm Calm - N/A   Clear
5:54 AM 35.1 °F 33.1 °F 92% 30.19 in 4.0 mi Calm Calm - N/A   Clear
6:54 AM 35.1 °F 33.1 °F 92% 30.20 in 4.0 mi Calm Calm - N/A   Clear
7:54 AM 41.0 °F 39.9 °F 96% 30.23 in 4.0 mi Calm Calm - N/A   Clear
8:54 AM 50.0 °F 45.0 °F 83% 30.24 in 7.0 mi Calm Calm - N/A   Clear
9:54 AM 59.0 °F 44.1 °F 58% 30.25 in 10.0 mi WSW 5.8 mph - N/A   Clear
10:54 AM 63.0 °F 41.0 °F 45% 30.26 in 10.0 mi WSW 6.9 mph - N/A   Clear
11:54 AM 64.9 °F 37.0 °F 36% 30.25 in 10.0 mi WSW 8.1 mph - N/A   Clear
12:54 PM 69.1 °F 34.0 °F 27% 30.24 in 10.0 mi Calm Calm - N/A   Mostly Cloudy
1:54 PM 69.1 °F 34.0 °F 27% 30.22 in 10.0 mi WSW 6.9 mph - N/A   Clear
2:54 PM 70.0 °F 34.0 °F 27% 30.21 in 10.0 mi Variable 6.9 mph - N/A   Clear
3:54 PM 71.1 °F 34.0 °F 26% 30.20 in 10.0 mi Variable 3.5 mph - N/A   Scattered Clouds
4:54 PM 71.1 °F 33.1 °F 25% 30.21 in 10.0 mi SW 3.5 mph - N/A   Partly Cloudy
5:54 PM 69.1 °F 34.0 °F 27% 30.21 in 10.0 mi Calm Calm - N/A   Clear
6:54 PM 66.9 °F 39.0 °F 36% 30.22 in 10.0 mi SW 3.5 mph - N/A   Clear
7:54 PM 54.0 °F 46.0 °F 75% 30.23 in 10.0 mi Calm Calm - N/A   Clear
8:54 PM 54.0 °F 42.1 °F 64% 30.26 in 10.0 mi SSE 3.5 mph - N/A   Clear
9:54 PM 51.1 °F 43.0 °F 74% 30.27 in 10.0 mi Calm Calm - N/A   Clear
10:54 PM 48.9 °F 42.1 °F 77% 30.28 in 10.0 mi ESE 3.5 mph - N/A   Clear
11:54 PM 46.0 °F 42.1 °F 86% 30.28 in 10.0 mi Calm Calm - N/A   Clear